Location: Unspecified
(0.0000°N, 0.0000°E)
Time: 07:04:26
(UTC+00:00)

OTV 5 (USA 277) - Visible Passes

Search period start: 19 May 2019 00:00
Search period end: 29 May 2019 00:00
Orbit: 310 x 325 km, 54.5° (Epoch: 08 May)

Date Brightness Start Highest point End Pass type
(mag) Time Alt. Az. Time Alt. Az. Time Alt. Az.
19 May ? 19:37:41 10° NW 19:38:22 16° NW 19:38:22 16° NW visible
21 May ? 18:33:06 10° NNW 18:35:33 36° ENE 18:37:28 14° ESE visible
22 May ? 18:47:48 10° WNW 18:50:12 31° WSW 18:52:33 11° S visible
25 May ? 05:03:25 10° S 05:05:47 25° ESE 05:08:07 10° ENE visible
26 May ? 05:18:00 12° SW 05:20:26 49° WNW 05:23:06 10° NNE visible
27 May ? 04:02:06 11° E 04:02:06 11° E 04:02:16 10° E visible
28 May ? 04:17:04 24° NE 04:17:04 24° NE 04:18:22 10° NE visible
